Terminal Aerodrome Forecast
Issued by NWS

Home | Current Version | Previous Version | Graphics & Text | Print | Product List | Glossary On
Versions: 1 2 3 4 5 6 7 8 9 10 11 12 13 14 15 16 17 18
000
FTUS45 KGGW 201700
TAFSDY
TAF
KSDY 201720Z 2018/2118 25011KT P6SM SCT150
     FM210300 25007KT P6SM FEW170 SCT220
     FM211200 VRB06KT P6SM SCT010 BKN090
      AMD LTD TO CLD VIS AND WIND=

USA.gov is the U.S. government's official web portal to all federal, state and local government web resources and services.